Year,Month,Day,Hour,Minute,Value (Times are PST for temperature in C)
2019,03,19,00,00,8.40
2019,03,19,00,01,8.40
2019,03,19,00,02,8.40
2019,03,19,00,03,8.40
2019,03,19,00,04,8.40
2019,03,19,00,05,8.30
2019,03,19,00,06,8.30
2019,03,19,00,07,8.30
2019,03,19,00,08,8.30
2019,03,19,00,09,8.30
2019,03,19,00,10,8.30
2019,03,19,00,11,8.30
2019,03,19,00,12,8.30
2019,03,19,00,13,8.30
2019,03,19,00,14,8.30
2019,03,19,00,15,8.30
2019,03,19,00,16,8.20
2019,03,19,00,17,8.20
2019,03,19,00,18,8.20
2019,03,19,00,19,8.30
2019,03,19,00,20,8.30
2019,03,19,00,21,8.30
2019,03,19,00,22,8.30
2019,03,19,00,23,8.30
2019,03,19,00,24,8.30
2019,03,19,00,25,8.30
2019,03,19,00,26,8.30
2019,03,19,00,27,8.30
2019,03,19,00,28,8.30
2019,03,19,00,29,8.30
2019,03,19,00,30,8.30
2019,03,19,00,31,8.30
2019,03,19,00,32,8.40
2019,03,19,00,33,8.40
2019,03,19,00,34,8.40
2019,03,19,00,35,8.40
2019,03,19,00,36,8.40
2019,03,19,00,37,8.40
2019,03,19,00,38,8.40
2019,03,19,00,39,8.40
2019,03,19,00,40,8.40
2019,03,19,00,41,8.40
2019,03,19,00,42,8.40
2019,03,19,00,43,8.40
2019,03,19,00,44,8.50
2019,03,19,00,45,8.50
2019,03,19,00,46,8.50
2019,03,19,00,47,8.50
2019,03,19,00,48,8.50
2019,03,19,00,49,8.50
2019,03,19,00,50,8.50
2019,03,19,00,51,8.50
2019,03,19,00,52,8.60
2019,03,19,00,53,8.60
2019,03,19,00,54,8.60
2019,03,19,00,55,8.60
2019,03,19,00,56,8.60
2019,03,19,00,57,8.50
2019,03,19,00,58,8.50
2019,03,19,00,59,8.50
2019,03,19,01,00,8.50
2019,03,19,01,01,8.50
2019,03,19,01,02,8.40
2019,03,19,01,03,8.40
2019,03,19,01,04,8.40
2019,03,19,01,05,8.40
2019,03,19,01,06,8.40
2019,03,19,01,07,8.40
2019,03,19,01,08,8.30
2019,03,19,01,09,8.30
2019,03,19,01,10,8.30
2019,03,19,01,11,8.30
2019,03,19,01,12,8.30
2019,03,19,01,13,8.30
2019,03,19,01,14,8.30
2019,03,19,01,15,8.20
2019,03,19,01,16,8.20
2019,03,19,01,17,8.20
2019,03,19,01,18,8.20
2019,03,19,01,19,8.20
2019,03,19,01,20,8.10
2019,03,19,01,21,8.10
2019,03,19,01,22,8.00
2019,03,19,01,23,8.00
2019,03,19,01,24,8.00
2019,03,19,01,25,7.90
2019,03,19,01,26,7.90
2019,03,19,01,27,7.90
2019,03,19,01,28,7.80
2019,03,19,01,29,7.80
2019,03,19,01,30,7.80
2019,03,19,01,31,7.80
2019,03,19,01,32,7.70
2019,03,19,01,33,7.70
2019,03,19,01,34,7.70
2019,03,19,01,35,7.70
2019,03,19,01,36,7.70
2019,03,19,01,37,7.70
2019,03,19,01,38,7.60
2019,03,19,01,39,7.60
2019,03,19,01,40,7.60
2019,03,19,01,41,7.60
2019,03,19,01,42,7.60
2019,03,19,01,43,7.60
2019,03,19,01,44,7.60
2019,03,19,01,45,7.60
2019,03,19,01,46,7.60
2019,03,19,01,47,7.60
2019,03,19,01,48,7.70
2019,03,19,01,49,7.70
2019,03,19,01,50,7.70
2019,03,19,01,51,7.70
2019,03,19,01,52,7.70
2019,03,19,01,53,7.70
2019,03,19,01,54,7.70
2019,03,19,01,55,7.70
2019,03,19,01,56,7.70
2019,03,19,01,57,7.70
2019,03,19,01,58,7.70
2019,03,19,01,59,7.70
2019,03,19,02,00,7.70
2019,03,19,02,01,7.70
2019,03,19,02,02,7.70
2019,03,19,02,03,7.70
2019,03,19,02,04,7.70
2019,03,19,02,05,7.70
2019,03,19,02,06,7.60
2019,03,19,02,07,7.60
2019,03,19,02,08,7.60
2019,03,19,02,09,7.60
2019,03,19,02,10,7.60
2019,03,19,02,11,7.60
2019,03,19,02,12,7.60
2019,03,19,02,13,7.50
2019,03,19,02,14,7.50
2019,03,19,02,15,7.50
2019,03,19,02,16,7.50
2019,03,19,02,17,7.40
2019,03,19,02,18,7.40
2019,03,19,02,19,7.40
2019,03,19,02,20,7.40
2019,03,19,02,21,7.40
2019,03,19,02,22,7.30
2019,03,19,02,23,7.30
2019,03,19,02,24,7.30
2019,03,19,02,25,7.30
2019,03,19,02,26,7.30
2019,03,19,02,27,7.30
2019,03,19,02,28,7.30
2019,03,19,02,29,7.30
2019,03,19,02,30,7.30
2019,03,19,02,31,7.20
2019,03,19,02,32,7.20
2019,03,19,02,33,7.20
2019,03,19,02,34,7.30
2019,03,19,02,35,7.20
2019,03,19,02,36,7.20
2019,03,19,02,37,7.20
2019,03,19,02,38,7.20
2019,03,19,02,39,7.20
2019,03,19,02,40,7.20
2019,03,19,02,41,7.20
2019,03,19,02,42,7.20
2019,03,19,02,43,7.20
2019,03,19,02,44,7.20
2019,03,19,02,45,7.20
2019,03,19,02,46,7.20
2019,03,19,02,47,7.20
2019,03,19,02,48,7.20
2019,03,19,02,49,7.20
2019,03,19,02,50,7.10
2019,03,19,02,51,7.10
2019,03,19,02,52,7.10
2019,03,19,02,53,7.10
2019,03,19,02,54,7.10
2019,03,19,02,55,7.10
2019,03,19,02,56,7.10
2019,03,19,02,57,7.10
2019,03,19,02,58,7.10
2019,03,19,02,59,7.10
2019,03,19,03,00,7.10
2019,03,19,03,01,7.10
2019,03,19,03,02,7.10
2019,03,19,03,03,7.10
2019,03,19,03,04,7.10
2019,03,19,03,05,7.20
2019,03,19,03,06,7.20
2019,03,19,03,07,7.20
2019,03,19,03,08,7.20
2019,03,19,03,09,7.20
2019,03,19,03,10,7.20
2019,03,19,03,11,7.30
2019,03,19,03,12,7.30
2019,03,19,03,13,7.40
2019,03,19,03,14,7.40
2019,03,19,03,15,7.50
2019,03,19,03,16,7.60
2019,03,19,03,17,7.70
2019,03,19,03,18,7.80
2019,03,19,03,19,7.80
2019,03,19,03,20,7.90
2019,03,19,03,21,8.00
2019,03,19,03,22,8.10
2019,03,19,03,23,8.10
2019,03,19,03,24,8.10
2019,03,19,03,25,8.10
2019,03,19,03,26,8.10
2019,03,19,03,27,8.10
2019,03,19,03,28,8.00
2019,03,19,03,29,8.00
2019,03,19,03,30,8.00
2019,03,19,03,31,8.00
2019,03,19,03,32,7.90
2019,03,19,03,33,7.90
2019,03,19,03,34,7.90
2019,03,19,03,35,7.90
2019,03,19,03,36,7.80
2019,03,19,03,37,7.70
2019,03,19,03,38,7.60
2019,03,19,03,39,7.60
2019,03,19,03,40,7.50
2019,03,19,03,41,7.50
2019,03,19,03,42,7.40
2019,03,19,03,43,7.40
2019,03,19,03,44,7.40
2019,03,19,03,45,7.30
2019,03,19,03,46,7.30
2019,03,19,03,47,7.30
2019,03,19,03,48,7.30
2019,03,19,03,49,7.20
2019,03,19,03,50,7.20
2019,03,19,03,51,7.20
2019,03,19,03,52,7.20
2019,03,19,03,53,7.20
2019,03,19,03,54,7.10
2019,03,19,03,55,7.10
2019,03,19,03,56,7.10
2019,03,19,03,57,7.10
2019,03,19,03,58,7.00
2019,03,19,03,59,7.00
2019,03,19,04,00,7.00
2019,03,19,04,01,7.00
2019,03,19,04,02,7.00
2019,03,19,04,03,7.00
2019,03,19,04,04,6.90
2019,03,19,04,05,6.90
2019,03,19,04,06,6.90
2019,03,19,04,07,6.90
2019,03,19,04,08,6.90
2019,03,19,04,09,7.00
2019,03,19,04,10,7.00
2019,03,19,04,11,7.00
2019,03,19,04,12,7.00
2019,03,19,04,13,7.00
2019,03,19,04,14,7.00
2019,03,19,04,15,7.00
2019,03,19,04,16,7.10
2019,03,19,04,17,7.10
2019,03,19,04,18,7.10
2019,03,19,04,19,7.10
2019,03,19,04,20,7.10
2019,03,19,04,21,7.20
2019,03,19,04,22,7.20
2019,03,19,04,23,7.20
2019,03,19,04,24,7.30
2019,03,19,04,25,7.30
2019,03,19,04,26,7.40
2019,03,19,04,27,7.40
2019,03,19,04,28,7.40
2019,03,19,04,29,7.50
2019,03,19,04,30,7.50
2019,03,19,04,31,7.50
2019,03,19,04,32,7.60
2019,03,19,04,33,7.60
2019,03,19,04,34,7.60
2019,03,19,04,35,7.60
2019,03,19,04,36,7.50
2019,03,19,04,37,7.50
2019,03,19,04,38,7.50
2019,03,19,04,39,7.50
2019,03,19,04,40,7.50
2019,03,19,04,41,7.40
2019,03,19,04,42,7.40
2019,03,19,04,43,7.40
2019,03,19,04,44,7.40
2019,03,19,04,45,7.40
2019,03,19,04,46,7.30
2019,03,19,04,47,7.30
2019,03,19,04,48,7.30
2019,03,19,04,49,7.30
2019,03,19,04,50,7.30
2019,03,19,04,51,7.30
2019,03,19,04,52,7.30
2019,03,19,04,53,7.30
2019,03,19,04,54,7.30
2019,03,19,04,55,7.30
2019,03,19,04,56,7.30
2019,03,19,04,57,7.30
2019,03,19,04,58,7.20
2019,03,19,04,59,7.20
2019,03,19,05,00,7.20
2019,03,19,05,01,7.20
2019,03,19,05,02,7.20
2019,03,19,05,03,7.20
2019,03,19,05,04,7.10
2019,03,19,05,05,7.10
2019,03,19,05,06,7.10
2019,03,19,05,07,7.00
2019,03,19,05,08,7.00
2019,03,19,05,09,6.90
2019,03,19,05,10,6.90
2019,03,19,05,11,6.90
2019,03,19,05,12,6.80
2019,03,19,05,13,6.80
2019,03,19,05,14,6.80
2019,03,19,05,15,6.80
2019,03,19,05,16,6.80
2019,03,19,05,17,6.70
2019,03,19,05,18,6.70
2019,03,19,05,19,6.70
2019,03,19,05,20,6.60
2019,03,19,05,21,6.60
2019,03,19,05,22,6.60
2019,03,19,05,23,6.50
2019,03,19,05,24,6.50
2019,03,19,05,25,6.50
2019,03,19,05,26,6.40
2019,03,19,05,27,6.40
2019,03,19,05,28,6.40
2019,03,19,05,29,6.40
2019,03,19,05,30,6.40
2019,03,19,05,31,6.40
2019,03,19,05,32,6.40
2019,03,19,05,33,6.40
2019,03,19,05,34,6.30
2019,03,19,05,35,6.30
2019,03,19,05,36,6.30
2019,03,19,05,37,6.30
2019,03,19,05,38,6.30
2019,03,19,05,39,6.30
2019,03,19,05,40,6.20
2019,03,19,05,41,6.20
2019,03,19,05,42,6.20
2019,03,19,05,43,6.10
2019,03,19,05,44,6.10
2019,03,19,05,45,6.10
2019,03,19,05,46,6.00
2019,03,19,05,47,6.00
2019,03,19,05,48,6.00
2019,03,19,05,49,5.90
2019,03,19,05,50,5.90
2019,03,19,05,51,5.90
2019,03,19,05,52,5.90
2019,03,19,05,53,5.80
2019,03,19,05,54,5.80
2019,03,19,05,55,5.80
2019,03,19,05,56,5.70
2019,03,19,05,57,5.70
2019,03,19,05,58,5.70
2019,03,19,05,59,5.70
2019,03,19,06,00,5.70
2019,03,19,06,01,5.60
2019,03,19,06,02,5.60
2019,03,19,06,03,5.60
2019,03,19,06,04,5.60
2019,03,19,06,05,5.60
2019,03,19,06,06,5.60
2019,03,19,06,07,5.50
2019,03,19,06,08,5.50
2019,03,19,06,09,5.50
2019,03,19,06,10,5.50
2019,03,19,06,11,5.40
2019,03,19,06,12,5.40
2019,03,19,06,13,5.40
2019,03,19,06,14,5.40
2019,03,19,06,15,5.40
2019,03,19,06,16,5.40
2019,03,19,06,17,5.30
2019,03,19,06,18,5.30
2019,03,19,06,19,5.30
2019,03,19,06,20,5.30
2019,03,19,06,21,5.20
2019,03,19,06,22,5.20
2019,03,19,06,23,5.20
2019,03,19,06,24,5.20
2019,03,19,06,25,5.10
2019,03,19,06,26,5.10
2019,03,19,06,27,5.10
2019,03,19,06,28,5.10
2019,03,19,06,29,5.10
2019,03,19,06,30,5.00
2019,03,19,06,31,5.00
2019,03,19,06,32,5.00
2019,03,19,06,33,5.00
2019,03,19,06,34,4.90
2019,03,19,06,35,4.90
2019,03,19,06,36,4.90
2019,03,19,06,37,4.90
2019,03,19,06,38,4.90
2019,03,19,06,39,4.90
2019,03,19,06,40,4.90
2019,03,19,06,41,4.90
2019,03,19,06,42,4.90
2019,03,19,06,43,4.90
2019,03,19,06,44,4.90
2019,03,19,06,45,4.90
2019,03,19,06,46,4.90
2019,03,19,06,47,4.90
2019,03,19,06,48,4.90
2019,03,19,06,49,4.90
2019,03,19,06,50,4.90
2019,03,19,06,51,4.90
2019,03,19,06,52,4.80
2019,03,19,06,53,4.80
2019,03,19,06,54,4.80
2019,03,19,06,55,4.80
2019,03,19,06,56,4.80
2019,03,19,06,57,4.80
2019,03,19,06,58,4.80
2019,03,19,06,59,4.80
2019,03,19,07,00,4.80
2019,03,19,07,01,4.80
2019,03,19,07,02,4.80
2019,03,19,07,03,4.80
2019,03,19,07,04,4.80
2019,03,19,07,05,4.80
2019,03,19,07,06,4.80
2019,03,19,07,07,4.80
2019,03,19,07,08,4.80
2019,03,19,07,09,4.80
2019,03,19,07,10,4.80
2019,03,19,07,11,4.80
2019,03,19,07,12,4.80
2019,03,19,07,13,4.80
2019,03,19,07,14,4.80
2019,03,19,07,15,4.80
2019,03,19,07,16,4.80
2019,03,19,07,17,4.80
2019,03,19,07,18,4.80
2019,03,19,07,19,4.90
2019,03,19,07,20,4.90
2019,03,19,07,21,4.90
2019,03,19,07,22,4.90
2019,03,19,07,23,4.90
2019,03,19,07,24,4.90
2019,03,19,07,25,4.90
2019,03,19,07,26,4.90
2019,03,19,07,27,4.90
2019,03,19,07,28,4.90
2019,03,19,07,29,4.80
2019,03,19,07,30,4.80
2019,03,19,07,31,4.80
2019,03,19,07,32,4.80
2019,03,19,07,33,4.80
2019,03,19,07,34,4.80
2019,03,19,07,35,4.80
2019,03,19,07,36,4.80
2019,03,19,07,37,4.80
2019,03,19,07,38,4.80
2019,03,19,07,39,4.80
2019,03,19,07,40,4.70
2019,03,19,07,41,4.70
2019,03,19,07,42,4.70
2019,03,19,07,43,4.70
2019,03,19,07,44,4.70
2019,03,19,07,45,4.70
2019,03,19,07,46,4.70
2019,03,19,07,47,4.70
2019,03,19,07,48,4.70
2019,03,19,07,49,4.70
2019,03,19,07,50,4.60
2019,03,19,07,51,4.60
2019,03,19,07,52,4.60
2019,03,19,07,53,4.60
2019,03,19,07,54,4.60
2019,03,19,07,55,4.60
2019,03,19,07,56,4.70
2019,03,19,07,57,4.70
2019,03,19,07,58,4.70
2019,03,19,07,59,4.70
2019,03,19,08,00,4.70
2019,03,19,08,01,4.70
2019,03,19,08,02,4.70
2019,03,19,08,03,4.80
2019,03,19,08,04,4.80
2019,03,19,08,05,4.80
2019,03,19,08,06,4.80
2019,03,19,08,07,4.80
2019,03,19,08,08,4.90
2019,03,19,08,09,4.90
2019,03,19,08,10,5.00
2019,03,19,08,11,5.00
2019,03,19,08,12,5.10
2019,03,19,08,13,5.20
2019,03,19,08,14,5.20
2019,03,19,08,15,5.30
2019,03,19,08,16,5.40
2019,03,19,08,17,5.40
2019,03,19,08,18,5.50
2019,03,19,08,19,5.50
2019,03,19,08,20,5.60
2019,03,19,08,21,5.60
2019,03,19,08,22,5.70
2019,03,19,08,23,5.70
2019,03,19,08,24,5.80
2019,03,19,08,25,5.90
2019,03,19,08,26,6.10
2019,03,19,08,27,6.20
2019,03,19,08,28,6.30
2019,03,19,08,29,6.40
2019,03,19,08,30,6.50
2019,03,19,08,31,6.60
2019,03,19,08,32,6.80
2019,03,19,08,33,6.90
2019,03,19,08,34,6.90
2019,03,19,08,35,7.00
2019,03,19,08,36,7.10
2019,03,19,08,37,7.10
2019,03,19,08,38,7.20
2019,03,19,08,39,7.30
2019,03,19,08,40,7.40
2019,03,19,08,41,7.60
2019,03,19,08,42,7.70
2019,03,19,08,43,7.90
2019,03,19,08,44,8.00
2019,03,19,08,45,8.10
2019,03,19,08,46,8.20
2019,03,19,08,47,8.30
2019,03,19,08,48,8.40
2019,03,19,08,49,8.40
2019,03,19,08,50,8.50
2019,03,19,08,51,8.60
2019,03,19,08,52,8.70
2019,03,19,08,53,8.70
2019,03,19,08,54,8.70
2019,03,19,08,55,8.80
2019,03,19,08,56,8.80
2019,03,19,08,57,8.90
2019,03,19,08,58,8.90
2019,03,19,08,59,9.00
2019,03,19,09,00,9.10
2019,03,19,09,01,9.20
2019,03,19,09,02,9.30
2019,03,19,09,03,9.40
2019,03,19,09,04,9.50
2019,03,19,09,05,9.50
2019,03,19,09,06,9.60
2019,03,19,09,07,9.70
2019,03,19,09,08,9.80
2019,03,19,09,09,9.80
2019,03,19,09,10,9.80
2019,03,19,09,11,9.90
2019,03,19,09,12,10.00
2019,03,19,09,13,10.10
2019,03,19,09,14,10.10
2019,03,19,09,15,10.20
2019,03,19,09,16,10.30
2019,03,19,09,17,10.40
2019,03,19,09,18,10.40
2019,03,19,09,19,10.50
2019,03,19,09,20,10.50
2019,03,19,09,21,10.60
2019,03,19,09,22,10.70
2019,03,19,09,23,10.70
2019,03,19,09,24,10.80
2019,03,19,09,25,10.90
2019,03,19,09,26,10.90
2019,03,19,09,27,11.00
2019,03,19,09,28,11.10
2019,03,19,09,29,11.20
2019,03,19,09,30,11.30
2019,03,19,09,31,11.40
2019,03,19,09,32,11.50
2019,03,19,09,33,11.60
2019,03,19,09,34,11.70
2019,03,19,09,35,11.80
2019,03,19,09,36,11.90
2019,03,19,09,37,12.00
2019,03,19,09,38,12.00
2019,03,19,09,39,12.10
2019,03,19,09,40,12.20
2019,03,19,09,41,12.30
2019,03,19,09,42,12.40
2019,03,19,09,43,12.40
2019,03,19,09,44,12.50
2019,03,19,09,45,12.60
2019,03,19,09,46,12.60
2019,03,19,09,47,12.70
2019,03,19,09,48,12.80
2019,03,19,09,49,12.80
2019,03,19,09,50,12.90
2019,03,19,09,51,13.00
2019,03,19,09,52,13.00
2019,03,19,09,53,13.10
2019,03,19,09,54,13.10
2019,03,19,09,55,13.20
2019,03,19,09,56,13.30
2019,03,19,09,57,13.40
2019,03,19,09,58,13.50
2019,03,19,09,59,13.50
2019,03,19,10,00,13.60
2019,03,19,10,01,13.70
2019,03,19,10,02,13.80
2019,03,19,10,03,13.90
2019,03,19,10,04,13.90
2019,03,19,10,05,14.00
2019,03,19,10,06,14.10
2019,03,19,10,07,14.20
2019,03,19,10,08,14.30
2019,03,19,10,09,14.40
2019,03,19,10,10,14.40
2019,03,19,10,11,14.50
2019,03,19,10,12,14.60
2019,03,19,10,13,14.70
2019,03,19,10,14,14.80
2019,03,19,10,15,14.80
2019,03,19,10,16,14.90
2019,03,19,10,17,14.90
2019,03,19,10,18,14.90
2019,03,19,10,19,14.90
2019,03,19,10,20,15.00
2019,03,19,10,21,15.00
2019,03,19,10,22,15.10
2019,03,19,10,23,15.10
2019,03,19,10,24,15.20
2019,03,19,10,25,15.30
2019,03,19,10,26,15.40
2019,03,19,10,27,15.50
2019,03,19,10,28,15.60
2019,03,19,10,29,15.60
2019,03,19,10,30,15.70
2019,03,19,10,31,15.80
2019,03,19,10,32,15.80
2019,03,19,10,33,15.90
2019,03,19,10,34,16.00
2019,03,19,10,35,16.00
2019,03,19,10,36,16.10
2019,03,19,10,37,16.20
2019,03,19,10,38,16.30
2019,03,19,10,39,16.30
2019,03,19,10,40,16.40
2019,03,19,10,41,16.40
2019,03,19,10,42,16.40
2019,03,19,10,43,16.40
2019,03,19,10,44,16.40
2019,03,19,10,45,16.50
2019,03,19,10,46,16.50
2019,03,19,10,47,16.60
2019,03,19,10,48,16.60
2019,03,19,10,49,16.60
2019,03,19,10,50,16.50
2019,03,19,10,51,16.50
2019,03,19,10,52,16.50
2019,03,19,10,53,16.50
2019,03,19,10,54,16.50
2019,03,19,10,55,16.50
2019,03,19,10,56,16.50
2019,03,19,10,57,16.50
2019,03,19,10,58,16.50
2019,03,19,10,59,16.50
2019,03,19,11,00,16.40
2019,03,19,11,01,16.40
2019,03,19,11,02,16.40
2019,03,19,11,03,16.40
2019,03,19,11,04,16.50
2019,03,19,11,05,16.50
2019,03,19,11,06,16.40
2019,03,19,11,07,16.40
2019,03,19,11,08,16.40
2019,03,19,11,09,16.40
2019,03,19,11,10,16.40
2019,03,19,11,11,16.40
2019,03,19,11,12,16.40
2019,03,19,11,13,16.50
2019,03,19,11,14,16.50
2019,03,19,11,15,16.60
2019,03,19,11,16,16.60
2019,03,19,11,17,16.60
2019,03,19,11,18,16.70
2019,03,19,11,19,16.70
2019,03,19,11,20,16.80
2019,03,19,11,21,16.80
2019,03,19,11,22,16.80
2019,03,19,11,23,16.90
2019,03,19,11,24,16.90
2019,03,19,11,25,16.90
2019,03,19,11,26,16.90
2019,03,19,11,27,17.00
2019,03,19,11,28,17.00
2019,03,19,11,29,17.00
2019,03,19,11,30,17.00
2019,03,19,11,31,17.00
2019,03,19,11,32,17.10
2019,03,19,11,33,17.10
2019,03,19,11,34,17.20
2019,03,19,11,35,17.10
2019,03,19,11,36,17.10
2019,03,19,11,37,17.10
2019,03,19,11,38,17.20
2019,03,19,11,39,17.20
2019,03,19,11,40,17.20
2019,03,19,11,41,17.20
2019,03,19,11,42,17.20
2019,03,19,11,43,17.20
2019,03,19,11,44,17.20
2019,03,19,11,45,17.20
2019,03,19,11,46,17.20
2019,03,19,11,47,17.20
2019,03,19,11,48,17.20
2019,03,19,11,49,17.20
2019,03,19,11,50,17.30
2019,03,19,11,51,17.30
2019,03,19,11,52,17.40
2019,03,19,11,53,17.40
2019,03,19,11,54,17.40
2019,03,19,11,55,17.50
2019,03,19,11,56,17.60
2019,03,19,11,57,17.70
2019,03,19,11,58,17.70
2019,03,19,11,59,17.80
2019,03,19,12,00,17.80
2019,03,19,12,01,17.80
2019,03,19,12,02,17.70
2019,03,19,12,03,17.80
2019,03,19,12,04,17.80
2019,03,19,12,05,17.90
2019,03,19,12,06,17.90
2019,03,19,12,07,17.90
2019,03,19,12,08,17.90
2019,03,19,12,09,17.90
2019,03,19,12,10,17.90
2019,03,19,12,11,17.90
2019,03,19,12,12,17.90
2019,03,19,12,13,17.90
2019,03,19,12,14,17.90
2019,03,19,12,15,17.90
2019,03,19,12,16,17.90
2019,03,19,12,17,17.90
2019,03,19,12,18,17.90
2019,03,19,12,19,17.90
2019,03,19,12,20,17.90
2019,03,19,12,21,17.90
2019,03,19,12,22,18.00
2019,03,19,12,23,18.00
2019,03,19,12,24,18.10
2019,03,19,12,25,18.20
2019,03,19,12,26,18.20
2019,03,19,12,27,18.40
2019,03,19,12,28,18.50
2019,03,19,12,29,18.60
2019,03,19,12,30,18.60
2019,03,19,12,31,18.50
2019,03,19,12,32,18.50
2019,03,19,12,33,18.50
2019,03,19,12,34,18.50
2019,03,19,12,35,18.50
2019,03,19,12,36,18.50
2019,03,19,12,37,18.50
2019,03,19,12,38,18.60
2019,03,19,12,39,18.60
2019,03,19,12,40,18.60
2019,03,19,12,41,18.60
2019,03,19,12,42,18.70
2019,03,19,12,43,18.80
2019,03,19,12,44,18.80
2019,03,19,12,45,18.90
2019,03,19,12,46,19.00
2019,03,19,12,47,19.00
2019,03,19,12,48,19.10
2019,03,19,12,49,19.10
2019,03,19,12,50,19.10
2019,03,19,12,51,19.20
2019,03,19,12,52,19.20
2019,03,19,12,53,19.20
2019,03,19,12,54,19.20
2019,03,19,12,55,19.20
2019,03,19,12,56,19.20
2019,03,19,12,57,19.30
2019,03,19,12,58,19.40
2019,03,19,12,59,19.60
2019,03,19,13,00,19.70
2019,03,19,13,01,19.90
2019,03,19,13,02,20.00
2019,03,19,13,03,20.10
2019,03,19,13,04,20.20
2019,03,19,13,05,20.20
2019,03,19,13,06,20.10
2019,03,19,13,07,20.10
2019,03,19,13,08,20.10
2019,03,19,13,09,20.10
2019,03,19,13,10,20.10
2019,03,19,13,11,20.10
2019,03,19,13,12,20.10
2019,03,19,13,13,20.00
2019,03,19,13,14,20.00
2019,03,19,13,15,20.00
2019,03,19,13,16,20.00
2019,03,19,13,17,20.00
2019,03,19,13,18,20.00
2019,03,19,13,19,20.00
2019,03,19,13,20,20.10
2019,03,19,13,21,20.20
2019,03,19,13,22,20.30
2019,03,19,13,23,20.30
2019,03,19,13,24,20.30
2019,03,19,13,25,20.40
2019,03,19,13,26,20.50
2019,03,19,13,27,20.60
2019,03,19,13,28,20.70
2019,03,19,13,29,20.80
2019,03,19,13,30,20.90
2019,03,19,13,31,21.00
2019,03,19,13,32,21.00
2019,03,19,13,33,21.00
2019,03,19,13,34,20.90
2019,03,19,13,35,20.90
2019,03,19,13,36,21.00
2019,03,19,13,37,21.10
2019,03,19,13,38,21.10
2019,03,19,13,39,21.10
2019,03,19,13,40,21.00
2019,03,19,13,41,20.90
2019,03,19,13,42,20.90
2019,03,19,13,43,20.90
2019,03,19,13,44,20.90
2019,03,19,13,45,20.90
2019,03,19,13,46,21.00
2019,03,19,13,47,20.90
2019,03,19,13,48,21.00
2019,03,19,13,49,21.00
2019,03,19,13,50,21.10
2019,03,19,13,51,21.10
2019,03,19,13,52,21.00
2019,03,19,13,53,21.00
2019,03,19,13,54,20.90
2019,03,19,13,55,20.80
2019,03,19,13,56,20.80
2019,03,19,13,57,20.70
2019,03,19,13,58,20.70
2019,03,19,13,59,20.70
2019,03,19,14,00,20.70
2019,03,19,14,01,20.70
2019,03,19,14,02,20.80
2019,03,19,14,03,20.90
2019,03,19,14,04,21.00
2019,03,19,14,05,21.00
2019,03,19,14,06,21.10
2019,03,19,14,07,21.10
2019,03,19,14,08,21.20
2019,03,19,14,09,21.20
2019,03,19,14,10,21.20
2019,03,19,14,11,21.20
2019,03,19,14,12,21.30
2019,03,19,14,13,21.30
2019,03,19,14,14,21.40
2019,03,19,14,15,21.50
2019,03,19,14,16,21.60
2019,03,19,14,17,21.70
2019,03,19,14,18,21.80
2019,03,19,14,19,21.80
2019,03,19,14,20,21.90
2019,03,19,14,21,22.00
2019,03,19,14,22,22.00
2019,03,19,14,23,22.10
2019,03,19,14,24,22.10
2019,03,19,14,25,22.10
2019,03,19,14,26,22.10
2019,03,19,14,27,22.20
2019,03,19,14,28,22.20
2019,03,19,14,29,22.20
2019,03,19,14,30,22.20
2019,03,19,14,31,22.30
2019,03,19,14,32,22.40
2019,03,19,14,33,22.40
2019,03,19,14,34,22.50
2019,03,19,14,35,22.50
2019,03,19,14,36,22.60
2019,03,19,14,37,22.60
2019,03,19,14,38,22.60
2019,03,19,14,39,22.60
2019,03,19,14,40,22.60
2019,03,19,14,41,22.70
2019,03,19,14,42,22.70
2019,03,19,14,43,22.80
2019,03,19,14,44,22.80
2019,03,19,14,45,22.90
2019,03,19,14,46,22.90
2019,03,19,14,47,22.80
2019,03,19,14,48,22.80
2019,03,19,14,49,22.80
2019,03,19,14,50,22.70
2019,03,19,14,51,22.70
2019,03,19,14,52,22.70
2019,03,19,14,53,22.70
2019,03,19,14,54,22.70
2019,03,19,14,55,22.70
2019,03,19,14,56,22.70
2019,03,19,14,57,22.60
2019,03,19,14,58,22.60
2019,03,19,14,59,22.60
2019,03,19,15,00,22.60
2019,03,19,15,01,22.60
2019,03,19,15,02,22.60
2019,03,19,15,03,22.60
2019,03,19,15,04,22.60
2019,03,19,15,05,22.70
2019,03,19,15,06,22.70
2019,03,19,15,08,22.70
2019,03,19,15,09,22.70
2019,03,19,15,10,22.70
2019,03,19,15,11,22.80
2019,03,19,15,12,22.70
2019,03,19,15,13,22.70
2019,03,19,15,14,22.70
2019,03,19,15,15,22.80
2019,03,19,15,16,22.80
2019,03,19,15,17,22.80
2019,03,19,15,18,22.90
2019,03,19,15,19,23.00
2019,03,19,15,20,23.10
2019,03,19,15,21,23.10
2019,03,19,15,22,23.20
2019,03,19,15,23,23.30
2019,03,19,15,24,23.30
2019,03,19,15,25,23.40
2019,03,19,15,26,23.40
2019,03,19,15,27,23.40
2019,03,19,15,28,23.40
2019,03,19,15,29,23.40
2019,03,19,15,30,23.30
2019,03,19,15,31,23.30
2019,03,19,15,32,23.20
2019,03,19,15,33,23.10
2019,03,19,15,34,23.10
2019,03,19,15,35,23.10
2019,03,19,15,36,23.10
2019,03,19,15,37,23.10
2019,03,19,15,38,23.10
2019,03,19,15,39,23.10
2019,03,19,15,40,23.00
2019,03,19,15,41,23.00
2019,03,19,15,42,22.90
2019,03,19,15,43,22.90
2019,03,19,15,44,22.90
2019,03,19,15,45,22.80
2019,03,19,15,46,22.80
2019,03,19,15,47,22.80
2019,03,19,15,48,22.80
2019,03,19,15,49,22.80
2019,03,19,15,50,22.80
2019,03,19,15,51,22.80
2019,03,19,15,52,22.80
2019,03,19,15,53,22.80
2019,03,19,15,54,22.70
2019,03,19,15,55,22.70
2019,03,19,15,56,22.70
2019,03,19,15,57,22.70
2019,03,19,15,58,22.70
2019,03,19,15,59,22.70
2019,03,19,16,00,22.70
2019,03,19,16,01,22.70
2019,03,19,16,02,22.70
2019,03,19,16,03,22.70
2019,03,19,16,04,22.70
2019,03,19,16,05,22.70
2019,03,19,16,06,22.70
2019,03,19,16,07,22.70
2019,03,19,16,08,22.70
2019,03,19,16,09,22.70
2019,03,19,16,10,22.70
2019,03,19,16,11,22.70
2019,03,19,16,12,22.60
2019,03,19,16,13,22.60
2019,03,19,16,14,22.60
2019,03,19,16,15,22.60
2019,03,19,16,16,22.60
2019,03,19,16,17,22.60
2019,03,19,16,18,22.60
2019,03,19,16,19,22.70
2019,03,19,16,20,22.70
2019,03,19,16,21,22.70
2019,03,19,16,22,22.70
2019,03,19,16,23,22.70
2019,03,19,16,24,22.60
2019,03,19,16,25,22.70
2019,03,19,16,26,22.70
2019,03,19,16,27,22.70
2019,03,19,16,28,22.80
2019,03,19,16,29,22.80
2019,03,19,16,30,22.80
2019,03,19,16,31,22.80
2019,03,19,16,32,22.90
2019,03,19,16,33,22.90
2019,03,19,16,34,22.90
2019,03,19,16,35,22.90
2019,03,19,16,36,23.00
2019,03,19,16,37,23.00
2019,03,19,16,38,22.90
2019,03,19,16,39,22.90
2019,03,19,16,40,22.90
2019,03,19,16,41,23.00
2019,03,19,16,42,22.90
2019,03,19,16,43,22.90
2019,03,19,16,44,22.90
2019,03,19,16,45,22.80
2019,03,19,16,46,22.80
2019,03,19,16,47,22.80
2019,03,19,16,48,22.80
2019,03,19,16,49,22.80
2019,03,19,16,50,22.80
2019,03,19,16,51,22.80
2019,03,19,16,52,22.80
2019,03,19,16,53,22.80
2019,03,19,16,54,22.80
2019,03,19,16,55,22.80
2019,03,19,16,56,22.80
2019,03,19,16,57,22.80
2019,03,19,16,58,22.80
2019,03,19,16,59,22.80
2019,03,19,17,00,22.80
2019,03,19,17,01,22.70
2019,03,19,17,02,22.70
2019,03,19,17,03,22.70
2019,03,19,17,04,22.60
2019,03,19,17,05,22.60
2019,03,19,17,06,22.60
2019,03,19,17,07,22.60
2019,03,19,17,08,22.50
2019,03,19,17,09,22.60
2019,03,19,17,10,22.60
2019,03,19,17,11,22.60
2019,03,19,17,12,22.50
2019,03,19,17,13,22.50
2019,03,19,17,14,22.50
2019,03,19,17,15,22.50
2019,03,19,17,16,22.50
2019,03,19,17,17,22.40
2019,03,19,17,18,22.40
2019,03,19,17,19,22.40
2019,03,19,17,20,22.40
2019,03,19,17,21,22.40
2019,03,19,17,22,22.40
2019,03,19,17,23,22.40
2019,03,19,17,24,22.40
2019,03,19,17,25,22.40
2019,03,19,17,26,22.40
2019,03,19,17,27,22.40
2019,03,19,17,28,22.40
2019,03,19,17,29,22.40
2019,03,19,17,30,22.40
2019,03,19,17,31,22.30
2019,03,19,17,32,22.30
2019,03,19,17,33,22.30
2019,03,19,17,34,22.40
2019,03,19,17,35,22.40
2019,03,19,17,36,22.40
2019,03,19,17,37,22.40
2019,03,19,17,38,22.40
2019,03,19,17,39,22.40
2019,03,19,17,40,22.40
2019,03,19,17,41,22.50
2019,03,19,17,42,22.50
2019,03,19,17,43,22.50
2019,03,19,17,44,22.60